Leakey, Texas, United States (78873)
Lat: 29.73N, Lon: 99.76W
Wx Zone: TXZ185
Local Info
Past Weather Observations for Wednesday, February 25, 2015

NOTE: This archive is for the closest National Weather Service station to Leakey. Information may differ from the station used for current weather conditions.

Click here for Long-term Archive

Time Weather Temperature Dewpoint Humidity Pressure Winds Precip Visibility
23:50
Clear
48°F / 9°C 28°F / -2°C 46% 29.89 in
(1012 mb)
Calm - 10SM
23:30
Clear
48°F / 9°C 28°F / -2°C 46% 29.89 in
(1012 mb)
Calm - 10SM
23:10
Clear
46°F / 8°C 28°F / -2°C 50% 29.89 in
(1012 mb)
SE 3.5 mph
(SE 6 kph)
- 10SM
22:50
Clear
48°F / 9°C 28°F / -2°C 46% 29.89 in
(1012 mb)
ESE 4.6 mph
(ESE 7 kph)
- 10SM
22:30
Clear
48°F / 9°C 28°F / -2°C 46% 29.89 in
(1012 mb)
SE 5.8 mph
(SE 9 kph)
- 10SM
22:10
Clear
48°F / 9°C 28°F / -2°C 46% 29.89 in
(1012 mb)
SE 3.5 mph
(SE 6 kph)
- 10SM
21:50
Clear
52°F / 11°C 28°F / -2°C 41% 29.89 in
(1012 mb)
E 4.6 mph
(E 7 kph)
- 10SM
21:30
Clear
50°F / 10°C 28°F / -2°C 43% 29.89 in
(1012 mb)
E 3.5 mph
(E 6 kph)
- 10SM
21:10
Clear
52°F / 11°C 28°F / -2°C 41% 29.89 in
(1012 mb)
ESE 3.5 mph
(ESE 6 kph)
- 10SM
20:50
Clear
48°F / 9°C 28°F / -2°C 46% 29.89 in
(1012 mb)
Calm - 10SM
20:30
Clear
48°F / 9°C 28°F / -2°C 46% 29.89 in
(1012 mb)
ESE 3.5 mph
(ESE 6 kph)
- 10SM
20:10
Clear
55°F / 13°C 28°F / -2°C 36% 29.86 in
(1011 mb)
NE 4.6 mph
(NE 7 kph)
- 10SM
19:50
Clear
55°F / 13°C 28°F / -2°C 36% 29.86 in
(1011 mb)
N 6.9 mph
(N 11 kph)
- 10SM
19:30
Clear
55°F / 13°C 28°F / -2°C 36% 29.86 in
(1011 mb)
N 3.5 mph
(N 6 kph)
- 10SM
19:10
Clear
54°F / 12°C 28°F / -2°C 38% 29.86 in
(1011 mb)
NNW 4.6 mph
(NNW 7 kph)
- 10SM
18:50
Clear
55°F / 13°C 28°F / -2°C 36% 29.83 in
(1010 mb)
NNW 3.5 mph
(NNW 6 kph)
- 10SM
18:30
Clear
57°F / 14°C 28°F / -2°C 33% 29.83 in
(1010 mb)
NW 5.8 mph
(NW 9 kph)
- 10SM
18:10
Clear
61°F / 16°C 28°F / -2°C 29% 29.83 in
(1010 mb)
NW 5.8 mph
(NW 9 kph)
- 10SM
17:50
Clear
61°F / 16°C 28°F / -2°C 29% 29.83 in
(1010 mb)
NW 8.1 mph
(NW 13 kph)
- 10SM
17:30
Clear
63°F / 17°C 28°F / -2°C 27% 29.83 in
(1010 mb)
NW 9.2 mph
(NW 15 kph)
- 10SM
17:10
Clear
63°F / 17°C 28°F / -2°C 27% 29.83 in
(1010 mb)
WNW 12.7 mph
(WNW 20 kph)
- 10SM
16:50
Clear
63°F / 17°C 28°F / -2°C 27% 29.83 in
(1010 mb)
NW 8.1 mph
(NW 13 kph)
- 10SM
16:30
Clear
63°F / 17°C 27°F / -3°C 25% 29.83 in
(1010 mb)
NW 11.5 mph
(NW 19 kph)
- 10SM
16:10
Clear
63°F / 17°C 28°F / -2°C 27% 29.83 in
(1010 mb)
NW 15 mph
(NW 24 kph)
- 10SM
15:50
Clear
63°F / 17°C 27°F / -3°C 25% 29.83 in
(1010 mb)
NW 12.7 mph
(NW 20 kph)
- 10SM
15:30
Clear
63°F / 17°C 28°F / -2°C 27% 29.83 in
(1010 mb)
NW 12.7 mph
(NW 20 kph)
- 10SM
15:10
Clear
61°F / 16°C 28°F / -2°C 29% 29.83 in
(1010 mb)
NW 9.2 mph
(NW 15 kph)
- 10SM
14:50
Clear
61°F / 16°C 28°F / -2°C 29% 29.86 in
(1011 mb)
NW 15 mph
(NW 24 kph)
- 10SM
14:30
Clear
59°F / 15°C 28°F / -2°C 31% 29.86 in
(1011 mb)
NW 16.1 mph
(NW 26 kph)
- 10SM
14:10
Clear
59°F / 15°C 28°F / -2°C 31% 29.89 in
(1012 mb)
NW 15 mph
(NW 24 kph)
- 10SM
13:50
Clear
57°F / 14°C 27°F / -3°C 31% 29.89 in
(1012 mb)
NW 15 mph
(NW 24 kph)
- 10SM
13:30
Clear
57°F / 14°C 28°F / -2°C 33% 29.89 in
(1012 mb)
NW 12.7 mph
(NW 20 kph)
- 10SM
13:10
Clear
57°F / 14°C 28°F / -2°C 33% 29.89 in
(1012 mb)
NW 15 mph
(NW 24 kph)
- 10SM
12:50
Clear
55°F / 13°C 28°F / -2°C 36% 29.92 in
(1013 mb)
NNW 16.1 mph
(NNW 26 kph)
- 10SM
12:30
Clear
54°F / 12°C 30°F / -1°C 41% 29.92 in
(1013 mb)
NNW 16.1 mph
(NNW 26 kph)
- 10SM
12:10
Clear
54°F / 12°C 30°F / -1°C 41% 29.95 in
(1014 mb)
NNW 18.4 mph
(NNW 30 kph)
- 10SM
11:50
Clear
52°F / 11°C 30°F / -1°C 44% 29.95 in
(1014 mb)
NW 18.4 mph
(NW 30 kph)
- 10SM
11:30
Clear
52°F / 11°C 30°F / -1°C 44% 29.95 in
(1014 mb)
NW 19.6 mph
(NW 32 kph)
- 10SM
11:10
Clear
48°F / 9°C 30°F / -1°C 50% 29.95 in
(1014 mb)
NW 20.7 mph
(NW 33 kph)
- 10SM
10:50
Clear
50°F / 10°C 30°F / -1°C 47% 29.98 in
(1015 mb)
NNW 16.1 mph
(NNW 26 kph)
- 10SM
10:30
Clear
48°F / 9°C 28°F / -2°C 46% 29.98 in
(1015 mb)
NW 18.4 mph
(NW 30 kph)
- 10SM
10:10
Clear
46°F / 8°C 28°F / -2°C 50% 29.98 in
(1015 mb)
NW 19.6 mph
(NW 32 kph)
- 10SM
09:50
Clear
45°F / 7°C 30°F / -1°C 57% 29.98 in
(1015 mb)
NW 16.1 mph
(NW 26 kph)
- 10SM
09:30
Clear
43°F / 6°C 32°F / 0°C 66% 29.98 in
(1015 mb)
NW 13.8 mph
(NW 22 kph)
- 10SM
09:10
Clear
41°F / 5°C 32°F / 0°C 70% 29.98 in
(1015 mb)
NW 17.3 mph
(NW 28 kph)
- 10SM
08:50
Clear
39°F / 4°C 32°F / 0°C 75% 29.98 in
(1015 mb)
NW 13.8 mph
(NW 22 kph)
- 9SM
08:30
Partly Cloudy
37°F / 3°C 32°F / 0°C 81% 29.95 in
(1014 mb)
NW 15 mph
(NW 24 kph)
- 9SM
08:10
Partly Cloudy
36°F / 2°C 32°F / 0°C 87% 29.98 in
(1015 mb)
NW 12.7 mph
(NW 20 kph)
- 9SM
07:50
Clear
34°F / 1°C 32°F / 0°C 93% 29.95 in
(1014 mb)
NW 9.2 mph
(NW 15 kph)
- 7SM
07:30
Clear
Fog And Mist
32°F / 0°C 30°F / -1°C 93% 29.95 in
(1014 mb)
WNW 8.1 mph
(WNW 13 kph)
- 6SM
07:10
Clear
Fog And Mist
32°F / 0°C 30°F / -1°C 93% 29.95 in
(1014 mb)
WNW 6.9 mph
(WNW 11 kph)
- 6SM
06:50
Clear
32°F / 0°C 30°F / -1°C 93% 29.95 in
(1014 mb)
WNW 6.9 mph
(WNW 11 kph)
- 8SM
06:30
Clear
32°F / 0°C 30°F / -1°C 93% 29.95 in
(1014 mb)
WNW 8.1 mph
(WNW 13 kph)
- 8SM
06:10
Clear
32°F / 0°C 30°F / -1°C 93% 29.95 in
(1014 mb)
WNW 9.2 mph
(WNW 15 kph)
- 9SM
05:50
Partly Cloudy
34°F / 1°C 30°F / -1°C 87% 29.95 in
(1014 mb)
NW 8.1 mph
(NW 13 kph)
- 10SM
05:30
Overcast
34°F / 1°C 32°F / 0°C 93% 29.95 in
(1014 mb)
NW 12.7 mph
(NW 20 kph)
- 10SM
05:10
Mostly Cloudy
34°F / 1°C 30°F / -1°C 87% 29.95 in
(1014 mb)
NW 9.2 mph
(NW 15 kph)
- 10SM
04:50
Partly Cloudy
34°F / 1°C 30°F / -1°C 87% 29.92 in
(1013 mb)
NW 11.5 mph
(NW 19 kph)
- 10SM
04:30
Partly Cloudy
34°F / 1°C 30°F / -1°C 87% 29.86 in
(1011 mb)
Calm - 10SM
04:10
Overcast
34°F / 1°C 32°F / 0°C 93% 29.92 in
(1013 mb)
W 5.8 mph
(W 9 kph)
- 10SM
03:50
Overcast
34°F / 1°C 32°F / 0°C 93% 29.92 in
(1013 mb)
WNW 8.1 mph
(WNW 13 kph)
- 10SM
03:30
Overcast
34°F / 1°C 32°F / 0°C 93% 29.95 in
(1014 mb)
W 8.1 mph
(W 13 kph)
- 10SM
03:10
Overcast
34°F / 1°C 32°F / 0°C 93% 29.92 in
(1013 mb)
NW 4.6 mph
(NW 7 kph)
- 10SM
02:50
Overcast
34°F / 1°C 32°F / 0°C 93% 29.92 in
(1013 mb)
W 4.6 mph
(W 7 kph)
- 10SM
02:30
Overcast
34°F / 1°C 32°F / 0°C 93% 29.98 in
(1015 mb)
W 8.1 mph
(W 13 kph)
- 10SM
02:10
Overcast
34°F / 1°C 32°F / 0°C 93% 29.98 in
(1015 mb)
WNW 6.9 mph
(WNW 11 kph)
- 10SM
01:50
Overcast
34°F / 1°C 32°F / 0°C 93% 29.98 in
(1015 mb)
W 5.8 mph
(W 9 kph)
- 7SM
01:30
Overcast
Fog And Mist
34°F / 1°C 32°F / 0°C 93% 29.98 in
(1015 mb)
NW 6.9 mph
(NW 11 kph)
- 4SM
01:10
Overcast
Fog And Mist
34°F / 1°C 32°F / 0°C 93% 29.98 in
(1015 mb)
NW 8.1 mph
(NW 13 kph)
- 4SM
00:50
Overcast
Fog And Mist
34°F / 1°C 32°F / 0°C 93% 29.98 in
(1015 mb)
NNW 8.1 mph
(NNW 13 kph)
- 4SM
00:30
Overcast
Fog And Mist
32°F / 0°C 32°F / 0°C 100% 29.95 in
(1014 mb)
Calm - 2 1/2SM
00:10
Overcast
Fog And Mist
32°F / 0°C 32°F / 0°C 100% 29.95 in
(1014 mb)
Calm - 1 1/4SM
Time Weather Temperature Dewpoint Humidity Pressure Winds Precip Visibility


Weather for websites

WeatherForYou.com, LLC is not responsible for any damages or problems caused by this service. Current weather conditions are obtained from the closest station including government and personal stations which may have varying degrees of accuracy. Weather forecasts are derived from the NOAA NDFD. Like all things, this site belongs to Jesus Christ... He just trusts me to maintain it. If you have any questions or comments email webmaster@weatherforyou.com

Copyright © 2015, WeatherForYou.com LLC. All rights reserved.